Temp_Advection
nan nan nan nan nan nan nan nan nan nan nan nan nan nan nan nan nan nan nan nan nan nan
nan -0 -0 0 0 0 0 0 -0 -0 -0 -1 -1 -1 -0 -0 -0 -0 -0 0 -0 nan
nan -0 0 0 0 0 0 0 -0 -0 -0 -0 -1 -1 -0 -0 -0 -0 -0 0 0 nan
nan -0 0 1 0 -0 0 0 -0 -0 -1 -1 -0 -1 -1 -0 -1 -0 0 0 -0 nan
nan 0 0 1 0 -1 -0 0 -0 0 -1 -2 -1 -1 -0 -1 -1 -1 -1 -0 -0 nan
nan 0 0 1 0 -0 -0 0 1 1 -0 -1 -1 -1 -1 -1 -1 -1 -1 -0 -0 nan
nan 0 -0 -0 0 0 -0 0 0 0 1 0 -0 -1 -0 -1 -1 -1 -1 -0 -0 nan
nan 0 0 -0 0 0 -0 -0 0 0 1 0 -0 -0 -0 -0 -1 -1 -1 -1 -0 nan
nan 0 0 0 -0 0 1 0 0 0 -0 0 0 -0 -0 -0 -0 -0 -1 -1 -1 nan
nan 0 0 0 0 0 1 1 0 -0 -0 0 0 -0 -0 -0 -0 -0 -0 -1 -2 nan
nan 1 1 0 0 0 1 1 0 0 -0 -0 0 -0 -0 -0 -0 -0 -0 -0 -1 nan
nan 1 1 1 0 0 1 1 1 0 -0 -0 0 -0 -0 -0 -0 -0 0 0 -0 nan
nan 1 1 1 1 0 0 1 1 0 0 0 0 -0 -0 -0 -0 -0 -1 0 1 nan
nan nan nan nan nan nan nan nan nan nan nan nan nan nan nan nan nan nan nan nan nan nan
Wind_Speed
30 31 27 26 22 21 19 19 17 16 16 17 17 18 20 22 23 26 28 30 31 32
29 30 24 19 16 15 16 16 15 16 15 16 16 17 19 21 23 24 26 28 28 26
31 29 23 18 15 14 17 15 15 16 16 17 19 21 22 22 22 22 23 24 24 24
31 25 20 19 18 18 17 19 18 19 21 22 23 23 23 22 23 24 25 23 25 27
25 21 20 21 19 20 17 19 20 24 26 29 26 23 23 23 23 23 24 25 23 23
24 22 20 19 16 17 20 21 24 25 27 25 22 22 20 21 22 22 21 21 23 23
22 20 18 19 18 19 21 24 26 27 24 20 19 19 17 22 22 22 21 19 19 19
21 19 18 20 20 21 21 22 22 21 19 18 17 17 19 21 22 22 20 19 19 18
20 20 19 20 21 20 20 17 15 16 16 16 16 17 17 18 19 19 18 20 19 18
21 21 21 20 20 19 18 14 15 15 15 14 15 15 15 15 16 17 17 19 21 21
24 23 22 22 21 20 17 15 13 13 12 12 14 15 13 14 15 15 16 16 19 19
29 27 24 24 23 21 20 17 13 12 11 12 13 12 11 13 14 15 16 16 15 17
35 33 28 25 23 22 20 18 18 13 14 13 14 9 10 11 13 15 16 15 16 15
39 37 31 25 23 22 21 19 20 17 14 11 10 10 9 11 12 13 15 15 14 13
Wind_Direction
328 327 324 322 326 327 332 328 333 336 334 328 323 322 316 310 306 304 297 297 299 295
320 320 315 311 310 316 319 322 325 322 323 323 320 316 316 316 313 306 304 294 298 301
316 314 307 294 291 298 303 304 311 313 313 314 315 315 312 311 310 307 303 302 300 294
314 307 297 283 272 279 288 292 303 306 308 311 313 309 306 306 304 303 307 310 305 300
309 304 295 291 278 276 276 291 301 304 312 311 311 308 303 302 303 307 310 312 312 310
302 302 295 290 281 275 279 284 292 296 302 308 311 314 312 308 308 309 311 311 313 315
301 301 296 290 280 273 273 277 283 292 302 304 307 315 313 307 310 311 313 313 313 315
300 298 299 298 295 276 272 276 284 292 295 302 309 312 311 313 311 313 315 316 315 313
301 298 298 303 302 293 281 283 288 293 300 304 306 311 315 314 309 314 316 318 318 321
300 297 295 300 299 296 288 284 290 298 302 304 308 316 314 310 308 314 317 320 322 322
293 291 288 293 292 291 293 283 290 299 304 304 301 312 307 302 305 308 308 315 316 319
282 284 283 284 289 286 288 282 283 291 297 298 290 298 304 301 301 303 307 310 313 317
278 275 275 278 284 285 288 294 293 283 286 280 290 307 308 308 303 307 308 316 321 325
275 265 271 267 278 279 282 288 292 280 281 289 302 310 318 318 309 312 316 323 326 330
Height
1486 1483 1481 1478 1477 1475 1472 1470 1466 1463 1461 1460 1458 1456 1454 1452 1449 1447 1445 1442 1440 1436
1485 1483 1479 1477 1476 1475 1473 1470 1467 1464 1461 1458 1455 1453 1449 1447 1445 1442 1438 1436 1433 1429
1481 1478 1476 1473 1473 1472 1469 1466 1463 1460 1457 1456 1452 1447 1446 1443 1439 1436 1433 1430 1426 1424
1477 1474 1472 1470 1469 1467 1465 1462 1458 1456 1452 1448 1446 1444 1442 1438 1434 1431 1427 1424 1421 1418
1473 1471 1468 1466 1464 1462 1460 1458 1454 1452 1448 1445 1440 1438 1436 1432 1428 1424 1421 1419 1416 1412
1470 1466 1463 1461 1459 1457 1455 1452 1449 1446 1442 1439 1436 1433 1430 1427 1423 1420 1417 1414 1411 1407
1464 1460 1457 1455 1453 1450 1449 1446 1443 1439 1436 1433 1431 1428 1426 1423 1418 1415 1412 1410 1407 1403
1458 1455 1452 1450 1446 1444 1442 1440 1435 1433 1430 1427 1426 1423 1421 1418 1414 1410 1407 1405 1402 1399
1453 1450 1447 1443 1441 1437 1436 1433 1429 1427 1424 1422 1421 1418 1416 1414 1411 1407 1403 1400 1397 1393
1448 1445 1442 1439 1435 1432 1430 1427 1423 1422 1418 1417 1416 1414 1412 1410 1407 1404 1400 1396 1393 1389
1442 1439 1437 1434 1430 1427 1424 1421 1418 1416 1414 1413 1411 1409 1407 1406 1403 1400 1397 1393 1390 1385
1436 1432 1430 1428 1425 1421 1418 1414 1412 1411 1409 1408 1406 1404 1402 1401 1398 1395 1393 1389 1386 1383
1428 1424 1421 1420 1418 1415 1412 1408 1407 1406 1404 1402 1400 1399 1398 1396 1394 1390 1388 1385 1382 1379
1417 1415 1414 1411 1409 1408 1406 1403 1401 1400 1399 1397 1396 1394 1393 1392 1390 1386 1384 1382 1379 1376